Regional Weather Roundup
Issued by NWS

Home | Current Version | Previous Version | Graphics & Text | Print | Product List | Glossary On
Versions: 1 2 3 4 5 6 7 8 9 10 11 12 13 14 15 16 17 18 19 20 21 22 23 24 25 26 27 28 29 30 31 32 33 34 35 36 37 38 39 40 41 42 43 44 45 46 47 48 49 50
062
ASUS45 KCYS 250510
RWRWY

WYOMING REGIONAL WEATHER ROUNDUP
NATIONAL WEATHER SERVICE CHEYENNE WY
1100 PM MDT WED MAY 24 2017

NOTE:  "FAIR" INDICATES FEW OR NO CLOUDS BELOW 12,000 FEET
WITH NO SIGNIFICANT WEATHER AND/OR OBSTRUCTIONS TO VISIBILITY.

WYZ001-250600-
YELLOWSTONE NATIONAL PARK

CITY           SKY/WX    TMP DP  RH WIND       PRES   REMARKS
LK YELLOWSTONE   N/A     42  15  33 VRB7      29.65F
W YELLOWSTONE  NOT AVBL

$$
WYZ002>013-054>058-071-098>099-250600-
NORTHERN WYOMING

CITY           SKY/WX    TMP DP  RH WIND       PRES   REMARKS
JACKSON        FAIR      54  12  19 S13G22    29.61S
CODY           FAIR      54  20  26 N12       29.54R
GREYBULL       FAIR      65  22  19 NW24G30   29.39S
WORLAND        FAIR      59  34  39 W6        29.44R
SHERIDAN       FAIR      53  36  52 W13       29.49S
BUFFALO        FAIR      55  33  43 NW13      29.54R
GILLETTE       FAIR      50  35  56 NW10      29.49R
HULETT         CLOUDY    55  48  76 N21G31    29.49R
NEWCASTLE      FAIR      59  45  58 NW21G30   29.43R

$$
WYZ014>020-022>026-101>103-250600-
CENTRAL WYOMING

CITY           SKY/WX    TMP DP  RH WIND       PRES   REMARKS
BIG PINEY      LGT RAIN  49  46  90 N10       29.68S
PINEDALE       DRIZZLE   48  41  76 NW14      29.71R
DUBOIS         FAIR      52  16  24 NW18G29   29.60R
LANDER         FAIR      57  40  52 W6        29.52R
RIVERTON       FAIR      58  40  51 SW9       29.51S
CASPER         FAIR      64  36  35 W10       29.50F
DOUGLAS        FAIR      67  38  34 W18       29.51R

$$
WYZ021-027>030-104>119-250600-
SOUTHERN WYOMING

CITY           SKY/WX    TMP DP  RH WIND       PRES   REMARKS
EVANSTON       FAIR      52  43  71 W12       29.70F
KEMMERER         N/A     46  45  93 W13       29.72S
ROCK SPRINGS   LGT RAIN  55  42  61 W17G28    29.71R
DIXON            N/A     65  31  28 W6        29.67F
RAWLINS        FAIR      55  40  56 SW9       29.66F
LARAMIE        FAIR      49  35  58 SW13      29.68F
CHEYENNE       FAIR      53  40  61 W10       29.64R
TORRINGTON     FAIR      63  41  44 SW5       29.44S
PINE BLUFFS    FAIR      54  41  62 W8        29.58S

$$




USA.gov is the U.S. government's official web portal to all federal, state and local government web resources and services.